Preview of NWS' New Version of Forecast
This preview is not operational and should not be used for support decisions.

Regional Weather Roundup (RWR)

Issued by National Weather Service (NWS)

                            
000
ASUS45 KABQ 242210
RWRNM 
NEW MEXICO REGIONAL WEATHER ROUNDUP
NATIONAL WEATHER SERVICE ALBUQUERQUE NM
400 PM MDT SAT AUG 24 2019

NOTE: "FAIR" MEANS FEW OR NO CLOUDS BELOW 12,000 FEET AGL WITH NO
       SIGNIFICANT WEATHER OR OBSTRUCTIONS TO VISION.

      THIS PRODUCT IS RELEASED AS TWO VERSIONS.  ONE VERSION NEAR
      THE TOP OF THE HOUR CONTAINING PRELIMINARY DATA FROM ALBUQUERQUE
      AND OTHER STATIONS.  A FINAL VERSION WITH ADDITIONAL DATA IS 
      ISSUED ABOUT 10 MINUTES AFTER THE HOUR.
 
NMZ501-503-504-510>518-242300-
NORTHWEST PLATEAU/NORTHCENTRAL MOUNTAINS
  
CITY           SKY/WX    TMP DP  RH WIND       PRES   REMARKS
FARMINGTON     FAIR      93  26   9 W10       30.08F                  
LOS ALAMOS       N/A     86  26  11 W16G25    30.21S                  
SANTA FE       FAIR      91  29  11 W15G30    30.11F                  
TAOS           FAIR      87  32  14 W10G18    30.18F                  
ANGEL FIRE     FAIR      77  32  19 W17G25    30.28F                  

$$
NMZ402-403-502-505>509-242300-
WESTCENTRAL MOUNTAINS/SOUTHWEST MOUNTAINS
  
CITY           SKY/WX    TMP DP  RH WIND       PRES   REMARKS
GALLUP         FAIR      89  31  12 NW13G26   30.20F                  
GRANTS         FAIR      89  31  13 NW14      30.20F                  
SILVER CITY    FAIR      90  47  22 S5        30.13F                  

$$
NMZ407-409-411-412-242300-
SOUTHERN DESERTS
  
CITY           SKY/WX    TMP DP  RH WIND       PRES   REMARKS
DEMING         FAIR      93  51  23 VRB3      30.04F                  
LAS CRUCES     FAIR      94  52  24 NE7       30.06F                  
HOLLOMAN AFB   FAIR      96  42  15 CALM      30.02F                  
ALAMOGORDO     FAIR      95  46  18 SW9       30.02F                  
T OR C         FAIR      97  39  13 S12       30.04F                  

$$
NMZ519>523-242300-
CENTRAL VALLEYS/CENTRAL HIGHLANDS
  
CITY           SKY/WX    TMP DP  RH WIND       PRES   REMARKS
ALBUQUERQUE    FAIR      94  33  11 W13G23    30.06F                  
DOUBLE EAGLE   MOSUNNY   91  34  13 NW14      30.11F                  
MORIARTY ARPT  FAIR      92  31  11 NW15      30.15F                  
CLINES CORNERS FAIR      88  27  11 NW21G33   30.21F                  
BELEN          FAIR      94  32  11 SE8       30.05F                  
SOCORRO        FAIR      95  38  14 SE12G18   30.03F                  

$$
NMZ524>526-539-540-242300-
SOUTHCENTRAL MOUNTAINS
  
CITY           SKY/WX    TMP DP  RH WIND       PRES   REMARKS
RUIDOSO        FAIR      86  37  17 NW8G18    30.23S                  

$$
NMZ527>531-242300-
NORTHEAST HIGHLANDS/NORTHEAST PLAINS
  
CITY           SKY/WX    TMP DP  RH WIND       PRES   REMARKS
LAS VEGAS      FAIR      87  24  10 CALM      30.15F                  
RATON          FAIR      87  36  16 SW10      30.06F                  
CLAYTON        FAIR      86  59  39 S21       29.96F                  

$$
NMZ532>537-242300-
EASTCENTRAL PLAINS
  
CITY           SKY/WX    TMP DP  RH WIND       PRES   REMARKS
SANTA ROSA     FAIR      96  51  21 S13       29.97F                  
TUCUMCARI      FAIR      96  55  25 SW12      29.91F                  
CANNON AFB     FAIR      91  55  29 SW10G17   30.00F                  
CLOVIS AIRPORT FAIR      91  59  33 SW8       29.99F                  

$$
NMZ028-029-538-242300-
SOUTHEAST PLAINS
  
CITY           SKY/WX    TMP DP  RH WIND       PRES   REMARKS
ROSWELL        FAIR     100  46  16 MISG      29.92F HX  96           
ARTESIA        FAIR      99  54  22 VRB5G13   29.94F HX  96           
CARLSBAD       FAIR      99  53  21 N7        29.90F HX  96           
HOBBS          MOSUNNY   95  54  24 VRB7      29.96F                  


$$